, SD

(GMT )
Rapid City

Weather History for KRAP - October, 2013

Change the Weather History Date:

Sunday, October 13, 2013

  Actual Average Record
Temperature  
Mean Temperature 45 °F 49 °F  
Max Temperature 58 °F 63 °F 87 °F (1958)
Min Temperature 32 °F 35 °F 18 °F (1969)
Degree Days  
Heating Degree Days 20 16  
Month to date heating degree days 249 181  
Since 1 July heating degree days 356 405  
Cooling Degree Days 0 0  
Month to date cooling degree days 0 0  
Year to date cooling degree days 724 633  
Moisture  
Dew Point 37 °F    
Average Humidity 70    
Maximum Humidity 89    
Minimum Humidity 51    
Precipitation  
Precipitation T in 0.05 in 0.74 in (1942)
Month to date precipitation 3.72 0.68  
Year to date precipitation 18.96 14.60  
Snow  
Snow 0.00 in 0.00 in 1.00 in (1997)
Month to date snowfall 19.6 0.3  
Since 1 July snowfall 19.6 0.5  
Since 1 September snowfall 19.6 0.5  
Snow Depth 0.00 in    
Sea Level Pressure  
Sea Level Pressure 30.17 in    
Wind  
Wind Speed 7 mph (East)    
Max Wind Speed 15 mph    
Max Gust Speed 25 mph    
Visibility 10 miles    
Events      
T = Trace of Precipitation, MM = Missing Value Source: NWS Daily Summary

Daily Weather History Graph

Daily Weather History Graph

Search for Another Location

Airport or City:

Trip Planner

Search our weather history database for the weather conditions in past years. The results will help you decide how hot, cold, wet, or windy it might be!

Date:

Astronomy

Oct. 13, 2013 Rise Set
Actual Time 7:04 AM MDT 6:11 PM MDT
Civil Twilight 6:35 AM MDT 6:40 PM MDT
Nautical Twilight 6:02 AM MDT 7:13 PM MDT
Astronomical Twilight 5:28 AM MDT 7:47 PM MDT
Moon 3:14 PM MDT (10/13) 1:05 AM MDT (10/13)
Length of Visible Light 12h 04m
Length of Day
11h 06m
Waxing Gibbous, 70% of the Moon is Illuminated
Oct 13
Waxing Gibbous
Oct 18
Full
Oct 26
Last Quarter
Nov 3
New
Nov 9
First Quarter

Hourly Weather History & Observations

Time (MDT) Temp. Windchill Dew Point Humidity Pressure Visibility Wind Dir Wind Speed Gust Speed Precip Events Conditions
12:52 AM 39.0 °F - 33.1 °F 79% 30.26 in 10.0 mi Calm Calm - 0.00 in   Mostly Cloudy
1:52 AM 41.0 °F 39.0 °F 33.1 °F 73% 30.26 in 10.0 mi South 3.5 mph - N/A   Overcast
2:52 AM 39.0 °F - 32.0 °F 76% 30.25 in 10.0 mi Calm Calm - 0.00 in   Scattered Clouds
3:52 AM 37.0 °F 33.3 °F 30.9 °F 79% 30.26 in 10.0 mi South 4.6 mph - N/A   Clear
4:52 AM 33.1 °F - 28.9 °F 85% 30.26 in 10.0 mi Calm Calm - N/A   Partly Cloudy
5:52 AM 33.1 °F 30.0 °F 30.0 °F 89% 30.26 in 10.0 mi NNE 3.5 mph - N/A   Clear
6:52 AM 35.1 °F 29.3 °F 30.9 °F 85% 30.27 in 10.0 mi NE 6.9 mph - N/A   Clear
7:52 AM 37.0 °F 32.4 °F 32.0 °F 82% 30.27 in 10.0 mi East 5.8 mph - N/A   Clear
8:52 AM 37.9 °F 34.4 °F 33.1 °F 83% 30.26 in 10.0 mi ESE 4.6 mph - N/A   Scattered Clouds
9:52 AM 41.0 °F 37.1 °F 34.0 °F 76% 30.25 in 10.0 mi SE 5.8 mph - N/A   Scattered Clouds
10:52 AM 44.1 °F 40.8 °F 36.0 °F 73% 30.23 in 10.0 mi SSE 5.8 mph - N/A   Scattered Clouds
11:52 AM 48.9 °F - 39.0 °F 69% 30.18 in 10.0 mi SE 10.4 mph - N/A   Clear
12:52 PM 54.0 °F - 39.9 °F 59% 30.14 in 10.0 mi South 12.7 mph - N/A   Clear
1:52 PM 55.0 °F - 39.9 °F 57% 30.12 in 10.0 mi SSE 12.7 mph - N/A   Clear
2:52 PM 57.0 °F - 39.9 °F 53% 30.10 in 10.0 mi SE 6.9 mph - N/A   Clear
3:52 PM 57.9 °F - 41.0 °F 53% 30.08 in 10.0 mi East 6.9 mph - N/A   Partly Cloudy
4:52 PM 55.9 °F - 43.0 °F 62% 30.08 in 10.0 mi NE 11.5 mph - N/A   Partly Cloudy
5:52 PM 54.0 °F - 43.0 °F 66% 30.08 in 10.0 mi North 9.2 mph - N/A   Overcast
6:52 PM 52.0 °F - 42.1 °F 69% 30.09 in 10.0 mi North 9.2 mph - N/A   Overcast
7:52 PM 50.0 °F - 42.1 °F 74% 30.09 in 10.0 mi WNW 6.9 mph - N/A   Overcast
8:52 PM 50.0 °F - 42.1 °F 74% 30.09 in 10.0 mi NNW 5.8 mph - N/A   Overcast
9:52 PM 48.0 °F - 42.1 °F 80% 30.07 in 10.0 mi North 5.8 mph - N/A   Overcast
10:52 PM 46.0 °F 41.9 °F 39.9 °F 79% 30.04 in 10.0 mi East 8.1 mph - N/A   Partly Cloudy
11:52 PM 44.1 °F 40.1 °F 37.0 °F 76% 30.00 in 10.0 mi ESE 6.9 mph - N/A   Clear